| time (UTC) | temp C | wind direction | speed KPH | gust KPH | rain 1hr cm | rain 24hr cm | rain mn cm | humidity % | barometer mb |
| 20260504012621 | 13 | 132 | 0.0 | 0.0 | 0.00 | 0.00 | 0.00 | 58 | |
| 20260504012120 | 14 | 132 | 0.0 | 0.0 | 0.00 | 0.00 | 0.00 | 57 | |
| 20260504011616 | 14 | 132 | 0.0 | 0.0 | 0.00 | 0.00 | 0.00 | 57 | |
| 20260504011112 | 14 | 132 | 0.0 | 0.0 | 0.00 | 0.00 | 0.00 | 56 | |
| 20260504010608 | 15 | 132 | 0.0 | 0.0 | 0.00 | 0.00 | 0.00 | 55 | |
| 20260504010104 | 15 | 132 | 0.0 | 0.0 | 0.00 | 0.00 | 0.00 | 53 | |
| 20260504005601 | 15 | 132 | 0.0 | 0.0 | 0.00 | 0.00 | 0.00 | 53 | |
| 20260504005058 | 15 | 132 | 0.0 | 0.0 | 0.00 | 0.00 | 0.00 | 52 | |
| 20260504004556 | 15 | 132 | 0.0 | 0.0 | 0.00 | 0.00 | 0.00 | 51 | |
| 20260504004053 | 15 | 132 | 0.0 | 0.0 | 0.00 | 0.00 | 0.00 | 53 | |
| 20260504003549 | 15 | 132 | 0.0 | 0.0 | 0.00 | 0.00 | 0.00 | 49 | |
| 20260504003046 | 16 | 133 | 0.0 | 0.0 | 0.00 | 0.00 | 0.00 | 49 | |
| 20260504002543 | 16 | 133 | 0.0 | 0.0 | 0.00 | 0.00 | 0.00 | 48 | |
| 20260504002040 | 16 | 133 | 0.0 | 0.0 | 0.00 | 0.00 | 0.00 | 48 | |
| 20260504001538 | 16 | 133 | 0.0 | 0.0 | 0.00 | 0.00 | 0.00 | 49 | |
| 20260504001034 | 16 | 133 | 0.0 | 0.0 | 0.00 | 0.00 | 0.00 | 47 | |
| 20260504000531 | 17 | 133 | 0.0 | 0.0 | 0.00 | 0.00 | 0.00 | 47 | |
| 20260504000029 | 17 | 133 | 0.0 | 0.0 | 0.00 | 0.00 | 0.00 | 45 | |
| 20260503235527 | 17 | 133 | 0.0 | 0.0 | 0.00 | 0.00 | 0.00 | 45 | |
| 20260503235023 | 17 | 132 | 0.0 | 0.0 | 0.00 | 0.00 | 0.00 | 44 | |
| 20260503234521 | 17 | 132 | 0.0 | 0.0 | 0.00 | 0.00 | 0.00 | 45 | |
| 20260503234019 | 17 | 133 | 0.0 | 1.6 | 0.00 | 0.00 | 0.00 | 46 | |
| 20260503233515 | 17 | 126 | 0.0 | 0.0 | 0.00 | 0.00 | 0.00 | 48 | |
| 20260503233006 | 17 | 138 | 0.0 | 0.0 | 0.00 | 0.00 | 0.00 | 46 | |
| 20260503232503 | 18 | 127 | 0.0 | 0.0 | 0.00 | 0.00 | 0.00 | 45 | |
| 20260503232000 | 18 | 125 | 0.0 | 1.6 | 0.00 | 0.00 | 0.00 | 44 | |
| 20260503231457 | 18 | 142 | 0.0 | 1.6 | 0.00 | 0.00 | 0.00 | 44 | |
| 20260503230954 | 18 | 128 | 0.0 | 0.0 | 0.00 | 0.00 | 0.00 | 44 | |
| 20260503230450 | 18 | 119 | 0.0 | 0.0 | 0.00 | 0.00 | 0.00 | 43 | |
| 20260503225948 | 18 | 140 | 0.0 | 1.6 | 0.00 | 0.00 | 0.00 | 44 | |
| 20260503225444 | 18 | 139 | 0.0 | 0.0 | 0.00 | 0.00 | 0.00 | 43 | |
| 20260503224940 | 18 | 142 | 0.0 | 1.6 | 0.00 | 0.00 | 0.00 | 43 | |
| 20260503224437 | 18 | 139 | 1.6 | 1.6 | 0.00 | 0.00 | 0.00 | 40 | |
| 20260503223935 | 18 | 125 | 0.0 | 1.6 | 0.00 | 0.00 | 0.00 | 41 | |
| 20260503223433 | 18 | 143 | 1.6 | 1.6 | 0.00 | 0.00 | 0.00 | 46 | |
| 20260503222928 | 18 | 222 | 0.0 | 1.6 | 0.00 | 0.00 | 0.00 | 45 | |
| 20260503222427 | 18 | 123 | 0.0 | 0.0 | 0.00 | 0.00 | 0.00 | 42 | |
| 20260503221925 | 18 | 139 | 0.0 | 1.6 | 0.00 | 0.00 | 0.00 | 45 | |
| 20260503221423 | 18 | 134 | 0.0 | 0.0 | 0.00 | 0.00 | 0.00 | 43 | |
| 20260503220919 | 18 | 119 | 1.6 | 1.6 | 0.00 | 0.00 | 0.00 | 43 | |
| 20260503220415 | 18 | 135 | 0.0 | 3.2 | 0.00 | 0.00 | 0.00 | 43 | |
| 20260503215913 | 19 | 128 | 0.0 | 1.6 | 0.00 | 0.00 | 0.00 | 44 | |
| 20260503215410 | 19 | 145 | 1.6 | 1.6 | 0.00 | 0.00 | 0.00 | 43 | |
| 20260503214907 | 19 | 126 | 1.6 | 3.2 | 0.00 | 0.00 | 0.00 | 41 | |
| 20260503214404 | 19 | 146 | 1.6 | 1.6 | 0.00 | 0.00 | 0.00 | 42 | |
| 20260503213902 | 19 | 130 | 1.6 | 3.2 | 0.00 | 0.00 | 0.00 | 41 | |
| 20260503213400 | 19 | 88 | 1.6 | 3.2 | 0.00 | 0.00 | 0.00 | 41 | |
| 20260503212856 | 19 | 131 | 1.6 | 3.2 | 0.00 | 0.00 | 0.00 | 42 | |
| 20260503212354 | 20 | 133 | 0.0 | 1.6 | 0.00 | 0.00 | 0.00 | 41 | |
| 20260503211851 | 19 | 137 | 0.0 | 3.2 | 0.00 | 0.00 | 0.00 | 42 | |
| 20260503211348 | 19 | 127 | 1.6 | 3.2 | 0.00 | 0.00 | 0.00 | 41 | |
| 20260503210843 | 20 | 144 | 3.2 | 4.8 | 0.00 | 0.00 | 0.00 | 40 | |
| 20260503210340 | 20 | 141 | 0.0 | 1.6 | 0.00 | 0.00 | 0.00 | 41 | |
| 20260503205835 | 20 | 151 | 3.2 | 3.2 | 0.00 | 0.00 | 0.00 | 41 | |
| 20260503205332 | 20 | 130 | 0.0 | 1.6 | 0.00 | 0.00 | 0.00 | 39 | |
| 20260503204828 | 20 | 140 | 0.0 | 1.6 | 0.00 | 0.00 | 0.00 | 38 | |
| 20260503204326 | 20 | 106 | 1.6 | 4.8 | 0.00 | 0.00 | 0.00 | 37 | |
| 20260503203823 | 20 | 140 | 1.6 | 3.2 | 0.00 | 0.00 | 0.00 | 40 | |
| 20260503203320 | 20 | 141 | 0.0 | 1.6 | 0.00 | 0.00 | 0.00 | 40 | |
| 20260503202817 | 20 | 137 | 0.0 | 3.2 | 0.00 | 0.00 | 0.00 | 39 | |
| 20260503202315 | 20 | 146 | 1.6 | 3.2 | 0.00 | 0.00 | 0.00 | 38 | |
| 20260503201813 | 20 | 116 | 1.6 | 1.6 | 0.00 | 0.00 | 0.00 | 39 | |
| 20260503201310 | 20 | 113 | 1.6 | 1.6 | 0.00 | 0.00 | 0.00 | 37 | |
| 20260503200808 | 21 | 141 | 0.0 | 3.2 | 0.00 | 0.00 | 0.00 | 36 | |
| 20260503200303 | 20 | 143 | 1.6 | 3.2 | 0.00 | 0.00 | 0.00 | 37 | |
| 20260503195801 | 20 | 187 | 3.2 | 3.2 | 0.00 | 0.00 | 0.00 | 38 | |
| 20260503195257 | 20 | 141 | 3.2 | 3.2 | 0.00 | 0.00 | 0.00 | 38 | |
| 20260503194755 | 20 | 121 | 1.6 | 3.2 | 0.00 | 0.00 | 0.00 | 38 | |
| 20260503194250 | 20 | 184 | 3.2 | 6.4 | 0.00 | 0.00 | 0.00 | 40 | |
| 20260503193746 | 20 | 138 | 1.6 | 3.2 | 0.00 | 0.00 | 0.00 | 37 | |
| 20260503193243 | 20 | 149 | 1.6 | 4.8 | 0.00 | 0.00 | 0.00 | 41 | |
| 20260503192738 | 20 | 154 | 1.6 | 3.2 | 0.00 | 0.00 | 0.00 | 40 | |
| 20260503192234 | 20 | 135 | 1.6 | 3.2 | 0.00 | 0.00 | 0.00 | 38 | |
| 20260503191731 | 20 | 149 | 1.6 | 3.2 | 0.00 | 0.00 | 0.00 | 39 | |
| 20260503191228 | 20 | 168 | 3.2 | 3.2 | 0.00 | 0.00 | 0.00 | 39 | |
| 20260503190725 | 20 | 152 | 3.2 | 3.2 | 0.00 | 0.00 | 0.00 | 41 | |
| 20260503190221 | 20 | 110 | 1.6 | 3.2 | 0.00 | 0.00 | 0.00 | 39 | |
| 20260503185719 | 20 | 150 | 3.2 | 4.8 | 0.00 | 0.00 | 0.00 | 41 | |
| 20260503185214 | 20 | 149 | 1.6 | 3.2 | 0.00 | 0.00 | 0.00 | 40 | |
| 20260503184709 | 20 | 146 | 0.0 | 3.2 | 0.00 | 0.00 | 0.00 | 40 | |
| 20260503184206 | 20 | 156 | 1.6 | 3.2 | 0.00 | 0.00 | 0.00 | 39 | |
| 20260503183702 | 20 | 140 | 3.2 | 3.2 | 0.00 | 0.00 | 0.00 | 42 | |
| 20260503183159 | 19 | 138 | 1.6 | 3.2 | 0.00 | 0.00 | 0.00 | 43 | |
| 20260503182657 | 19 | 141 | 3.2 | 3.2 | 0.00 | 0.00 | 0.00 | 40 | |
| 20260503182156 | 18 | 135 | 0.0 | 4.8 | 0.00 | 0.00 | 0.00 | 41 | |
| 20260503181652 | 19 | 203 | 3.2 | 4.8 | 0.00 | 0.00 | 0.00 | 41 | |
| 20260503181149 | 18 | 165 | 3.2 | 3.2 | 0.00 | 0.00 | 0.00 | 41 | |
| 20260503180646 | 18 | 148 | 1.6 | 3.2 | 0.00 | 0.00 | 0.00 | 45 | |
| 20260503180144 | 19 | 150 | 1.6 | 3.2 | 0.00 | 0.00 | 0.00 | 42 | |
| 20260503175640 | 18 | 97 | 1.6 | 3.2 | 0.00 | 0.00 | 0.00 | 41 | |
| 20260503175138 | 18 | 139 | 0.0 | 3.2 | 0.00 | 0.00 | 0.00 | 42 | |
| 20260503174634 | 18 | 95 | 0.0 | 4.8 | 0.00 | 0.00 | 0.00 | 41 | |
| 20260503174132 | 18 | 175 | 1.6 | 4.8 | 0.00 | 0.00 | 0.00 | 44 | |
| 20260503173626 | 18 | 138 | 0.0 | 3.2 | 0.00 | 0.00 | 0.00 | 41 | |
| 20260503173123 | 17 | 128 | 0.0 | 4.8 | 0.00 | 0.00 | 0.00 | 42 | |
| 20260503172620 | 18 | 138 | 0.0 | 0.0 | 0.00 | 0.00 | 0.00 | 41 | |
| 20260503172118 | 18 | 155 | 1.6 | 3.2 | 0.00 | 0.00 | 0.00 | 42 | |
| 20260503171614 | 18 | 100 | 1.6 | 3.2 | 0.00 | 0.00 | 0.00 | 42 | |
| 20260503171111 | 17 | 199 | 1.6 | 3.2 | 0.00 | 0.00 | 0.00 | 42 | |
| 20260503170608 | 17 | 132 | 1.6 | 3.2 | 0.00 | 0.00 | 0.00 | 43 | |
| 20260503170105 | 17 | 129 | 1.6 | 4.8 | 0.00 | 0.00 | 0.00 | 44 | |
| 20260503150954 | 15 | 129 | 0.0 | 3.2 | 0.00 | 0.00 | 0.00 | 49 | |
| 20260503150450 | 15 | 148 | 1.6 | 3.2 | 0.00 | 0.00 | 0.00 | 49 | |
| 20260503131344 | 11 | 127 | 0.0 | 1.6 | 0.00 | 0.00 | 0.00 | 60 | |
| 20260503130841 | 11 | 119 | 1.6 | 4.8 | 0.00 | 0.00 | 0.00 | 59 | |
| 20260503130338 | 11 | 105 | 1.6 | 4.8 | 0.00 | 0.00 | 0.00 | 60 | |
| 20260503110732 | 6 | 129 | 0.0 | 0.0 | 0.00 | 0.00 | 0.00 | 88 | |
| 20260503110229 | 5 | 129 | 0.0 | 0.0 | 0.00 | 0.00 | 0.00 | 87 | |
| 20260503100155 | 6 | 129 | 0.0 | 0.0 | 0.00 | 0.00 | 0.00 | 85 | |
| 20260503090115 | 6 | 130 | 0.0 | 0.0 | 0.00 | 0.00 | 0.00 | 84 | |
| 20260503081550 | 7 | 130 | 0.0 | 0.0 | 0.00 | 0.00 | 0.00 | 80 | |
| 20260503081048 | 7 | 130 | 0.0 | 0.0 | 0.00 | 0.00 | 0.00 | 80 | |
| 20260503080544 | 7 | 130 | 0.0 | 0.0 | 0.00 | 0.00 | 0.00 | 82 | |
| 20260503072518 | 7 | 130 | 0.0 | 0.0 | 0.00 | 0.00 | 0.00 | 80 | |
| 20260503072015 | 7 | 130 | 0.0 | 0.0 | 0.00 | 0.00 | 0.00 | 80 | |
| 20260503071511 | 7 | 130 | 0.0 | 0.0 | 0.00 | 0.00 | 0.00 | 80 | |
| 20260503071008 | 7 | 130 | 0.0 | 0.0 | 0.00 | 0.00 | 0.00 | 80 | |
| 20260503070505 | 7 | 130 | 0.0 | 0.0 | 0.00 | 0.00 | 0.00 | 77 | |
| 20260503054928 | 9 | 130 | 0.0 | 0.0 | 0.00 | 0.00 | 0.00 | 65 | |
| 20260503054425 | 9 | 130 | 0.0 | 0.0 | 0.00 | 0.00 | 0.00 | 63 | |
| 20260503053923 | 9 | 130 | 0.0 | 0.0 | 0.00 | 0.00 | 0.00 | 64 | |
| 20260503053420 | 9 | 130 | 0.0 | 0.0 | 0.00 | 0.00 | 0.00 | 64 | |
| 20260503052916 | 9 | 130 | 0.0 | 0.0 | 0.00 | 0.00 | 0.00 | 64 | |
| 20260503052414 | 10 | 130 | 0.0 | 0.0 | 0.00 | 0.00 | 0.00 | 68 | |
| 20260503051910 | 10 | 129 | 0.0 | 0.0 | 0.00 | 0.00 | 0.00 | 63 | |
| 20260503051406 | 10 | 129 | 0.0 | 0.0 | 0.00 | 0.00 | 0.00 | 69 | |
| 20260503050903 | 10 | 129 | 0.0 | 0.0 | 0.00 | 0.00 | 0.00 | 63 | |
| 20260503050359 | 11 | 129 | 0.0 | 0.0 | 0.00 | 0.00 | 0.00 | 65 | |
| 20260503045857 | 11 | 123 | 0.0 | 1.6 | 0.00 | 0.00 | 0.00 | 61 | |
| 20260503045354 | 10 | 118 | 0.0 | 1.6 | 0.00 | 0.00 | 0.00 | 55 | |
| 20260503044851 | 11 | 121 | 0.0 | 0.0 | 0.00 | 0.00 | 0.00 | 63 | |
| 20260503044348 | 10 | 119 | 0.0 | 6.4 | 0.00 | 0.00 | 0.00 | 55 | |
| 20260503043845 | 10 | 121 | 0.0 | 0.0 | 0.00 | 0.00 | 0.00 | 61 | |
| 20260503043342 | 10 | 121 | 0.0 | 0.0 | 0.00 | 0.00 | 0.00 | 58 | |
| 20260503042838 | 10 | 121 | 0.0 | 0.0 | 0.00 | 0.00 | 0.00 | 59 | |
| 20260503042335 | 11 | 121 | 0.0 | 0.0 | 0.00 | 0.00 | 0.00 | 60 | |
| 20260503041831 | 11 | 121 | 0.0 | 0.0 | 0.00 | 0.00 | 0.00 | 61 | |
| 20260503041328 | 11 | 121 | 0.0 | 0.0 | 0.00 | 0.00 | 0.00 | 54 | |
| 20260503040826 | 11 | 120 | 0.0 | 0.0 | 0.00 | 0.00 | 0.00 | 54 | |
| 20260503040323 | 11 | 119 | 0.0 | 3.2 | 0.00 | 0.00 | 0.00 | 52 | |
| 20260503035820 | 11 | 117 | 1.6 | 1.6 | 0.00 | 0.03 | 0.03 | 51 | |
| 20260503035317 | 11 | 115 | 1.6 | 1.6 | 0.00 | 0.03 | 0.03 | 53 | |
| 20260503034814 | 11 | 118 | 1.6 | 3.2 | 0.00 | 0.03 | 0.03 | 53 | |
| 20260503034311 | 11 | 120 | 0.0 | 1.6 | 0.00 | 0.03 | 0.03 | 54 | |
| 20260503033809 | 11 | 123 | 0.0 | 1.6 | 0.00 | 0.03 | 0.03 | 55 | |
| 20260503033306 | 10 | 90 | 0.0 | 0.0 | 0.00 | 0.03 | 0.03 | 57 | |
| 20260503032804 | 10 | 123 | 0.0 | 0.0 | 0.00 | 0.03 | 0.03 | 57 | |
| 20260503032304 | 10 | 138 | 0.0 | 0.0 | 0.00 | 0.03 | 0.03 | 63 | |
| 20260503031759 | 10 | 138 | 0.0 | 0.0 | 0.00 | 0.03 | 0.03 | 63 | |
| 20260503031258 | 10 | 138 | 0.0 | 0.0 | 0.00 | 0.03 | 0.03 | 64 | |
| 20260503030753 | 10 | 138 | 0.0 | 0.0 | 0.00 | 0.03 | 0.03 | 63 | |
| 20260503030250 | 11 | 138 | 0.0 | 0.0 | 0.00 | 0.03 | 0.03 | 64 | |
| 20260503025747 | 11 | 138 | 0.0 | 0.0 | 0.00 | 0.03 | 0.03 | 61 | |
| 20260503025244 | 11 | 138 | 0.0 | 0.0 | 0.00 | 0.03 | 0.03 | 53 | |
| 20260503024741 | 11 | 138 | 0.0 | 0.0 | 0.00 | 0.03 | 0.03 | 53 | |
| 20260503024238 | 11 | 138 | 0.0 | 0.0 | 0.00 | 0.03 | 0.03 | 53 | |
| 20260503023735 | 12 | 138 | 0.0 | 0.0 | 0.00 | 0.03 | 0.03 | 57 | |
| 20260503023232 | 12 | 138 | 0.0 | 0.0 | 0.00 | 0.03 | 0.03 | 51 | |
| 20260503022728 | 12 | 138 | 0.0 | 0.0 | 0.00 | 0.03 | 0.03 | 50 | |
| 20260503022228 | 12 | 138 | 0.0 | 0.0 | 0.00 | 0.03 | 0.03 | 52 | |
| 20260503021725 | 13 | 138 | 0.0 | 0.0 | 0.00 | 0.03 | 0.03 | 51 | |
| 20260503021221 | 13 | 127 | 0.0 | 0.0 | 0.00 | 0.03 | 0.03 | 47 | |
| 20260503020719 | 13 | 125 | 0.0 | 1.6 | 0.00 | 0.03 | 0.03 | 47 | |
| 20260503020216 | 13 | 123 | 0.0 | 3.2 | 0.00 | 0.03 | 0.03 | 43 | |
| 20260503015713 | 13 | 120 | 1.6 | 1.6 | 0.00 | 0.03 | 0.03 | 43 | |
| 20260503015210 | 13 | 118 | 0.0 | 4.8 | 0.00 | 0.03 | 0.03 | 43 | |
| 20260503014705 | 13 | 119 | 0.0 | 3.2 | 0.00 | 0.03 | 0.03 | 43 | |
| 20260503014204 | 14 | 121 | 0.0 | 3.2 | 0.00 | 0.03 | 0.03 | 45 | |
| 20260503013701 | 14 | 118 | 0.0 | 3.2 | 0.00 | 0.03 | 0.03 | 42 | |
| 20260503013158 | 14 | 123 | 0.0 | 0.0 | 0.00 | 0.03 | 0.03 | 42 |